Tillbaka till svenska Fidonet
English   Information   Debug  
FILM   0/18
FNEWS_PUBLISH   4983
FN_SYSOP   42232
FN_SYSOP_OLD1   71952
FTP_FIDO   0/2
FTSC_PUBLIC   0/13976
FUNNY   0/4886
GENEALOGY.EUR   0/71
GET_INFO   105
GOLDED   0/408
HAM   4831/16715
HOLYSMOKE   0/6791
HOT_SITES   0/1
HTMLEDIT   0/71
HUB203   466
HUB_100   264
HUB_400   39
HUMOR   0/29
IC   0/2851
INTERNET   0/424
INTERUSER   0/3
IP_CONNECT   719
JAMNNTPD   0/233
JAMTLAND   0/47
KATTY_KORNER   0/41
LAN   0/16
LINUX-USER   0/19
LINUXHELP   0/1155
LINUX   0/22386
LINUX_BBS   0/957
mail   18.68
mail_fore_ok   249
MENSA   0/341
MODERATOR   0/102
MONTE   0/992
MOSCOW_OKLAHOMA   0/1245
MUFFIN   0/783
MUSIC   0/321
N203_STAT   938
N203_SYSCHAT   313
NET203   321
NET204   69
NET_DEV   0/10
NORD.ADMIN   0/101
NORD.CHAT   0/2572
NORD.FIDONET   189
NORD.HARDWARE   0/28
NORD.KULTUR   0/114
NORD.PROG   0/32
NORD.SOFTWARE   0/88
NORD.TEKNIK   0/58
NORD   0/453
OCCULT_CHAT   0/93
OS2BBS   0/787
OS2DOSBBS   0/580
OS2HW   0/42
OS2INET   0/37
OS2LAN   0/134
OS2PROG   0/36
OS2REXX   0/113
OS2USER-L   207
OS2   0/4831
OSDEBATE   0/18996
PASCAL   0/490
PERL   0/457
PHP   0/45
POINTS   0/405
POLITICS   0/29554
POL_INC   1367/14731
PSION   103
R20_ADMIN   1133
R20_AMATORRADIO   0/2
R20_BEST_OF_FIDONET   16
R20_CHAT   0/897
R20_DEPP   0/3
R20_DEV   400
R20_ECHO2   1890
R20_ECHOPRES   0/35
R20_ESTAT   0/719
R20_FIDONETPROG...
...RAM.MYPOINT
  0/2
R20_FIDONETPROGRAM   0/22
R20_FIDONET   0/248
R20_FILEFIND   0/24
R20_FILEFOUND   0/22
R20_HIFI   0/3
R20_INFO2   3782
R20_INTERNET   0/12940
R20_INTRESSE   0/60
R20_INTR_KOM   0/99
R20_KANDIDAT.CHAT   42
R20_KANDIDAT   28
R20_KOM_DEV   112
R20_KONTROLL   0/13360
R20_KORSET   0/18
R20_LOKALTRAFIK   0/24
R20_MODERATOR   0/1852
R20_NC   76
R20_NET200   245
R20_NETWORK.OTH...
...ERNETS
  0/13
R20_OPERATIVSYS...
...TEM.LINUX
  0/44
R20_PROGRAMVAROR   0/1
R20_REC2NEC   534
R20_SFOSM   0/341
R20_SF   0/108
R20_SPRAK.ENGLISH   0/1
R20_SQUISH   107
R20_TEST   2
R20_WORST_OF_FIDONET   20
RAR   0/9
RA_MULTI   106
RA_UTIL   0/162
REGCON.EUR   0/2069
REGCON   0/13
SCIENCE   0/1206
SF   0/239
SHAREWARE_SUPPORT   0/5146
SHAREWRE   0/14
SIMPSONS   0/169
STATS_OLD1   0/2539.065
STATS_OLD2   0/2530
STATS_OLD3   0/2395.095
STATS_OLD4   0/1692.25
SURVIVOR   0/495
SYSOPS_CORNER   0/3
SYSOP   0/84
TAGLINES   0/112
TEAMOS2   0/4530
TECH   0/2617
TEST.444   0/105
TRAPDOOR   0/19
TREK   0/755
TUB   0/290
UFO   0/40
UNIX   0/1316
USA_EURLINK   0/102
USR_MODEMS   0/1
VATICAN   0/2740
VIETNAM_VETS   0/14
VIRUS   0/378
VIRUS_INFO   0/201
VISUAL_BASIC   0/473
WHITEHOUSE   0/5187
WIN2000   0/101
WIN32   0/30
WIN95   0/4291
WIN95_OLD1   0/70272
WINDOWS   0/1517
WWB_SYSOP   0/419
WWB_TECH   0/810
ZCC-PUBLIC   0/1
ZEC   4

 
4DOS   0/134
ABORTION   0/7
ALASKA_CHAT   0/506
ALLFIX_FILE   0/1313
ALLFIX_FILE_OLD1   0/7997
ALT_DOS   0/152
AMATEUR_RADIO   0/1039
AMIGASALE   0/14
AMIGA   0/331
AMIGA_INT   0/1
AMIGA_PROG   0/20
AMIGA_SYSOP   0/26
ANIME   0/15
ARGUS   0/924
ASCII_ART   0/340
ASIAN_LINK   0/651
ASTRONOMY   0/417
AUDIO   0/92
AUTOMOBILE_RACING   0/105
BABYLON5   0/17862
BAG   135
BATPOWER   0/361
BBBS.ENGLISH   0/382
BBSLAW   0/109
BBS_ADS   0/5290
BBS_INTERNET   0/507
BIBLE   0/3563
BINKD   0/1119
BINKLEY   0/215
BLUEWAVE   0/2173
CABLE_MODEMS   0/25
CBM   0/46
CDRECORD   0/66
CDROM   0/20
CLASSIC_COMPUTER   0/378
COMICS   0/15
CONSPRCY   0/899
COOKING   42010
COOKING_OLD1   0/24719
COOKING_OLD2   15278/40862
COOKING_OLD3   0/37489
COOKING_OLD4   0/35496
COOKING_OLD5   9370
C_ECHO   0/189
C_PLUSPLUS   0/31
DIRTY_DOZEN   0/201
DOORGAMES   0/2333
DOS_INTERNET   0/196
duplikat   6102
ECHOLIST   0/18295
EC_SUPPORT   0/318
ELECTRONICS   0/359
ELEKTRONIK.GER   1534
ENET.LINGUISTIC   0/13
ENET.POLITICS   0/4
ENET.SOFT   0/11701
ENET.SYSOP   34335
ENET.TALKS   0/32
ENGLISH_TUTOR   0/2000
EVOLUTION   0/1335
FDECHO   0/217
FDN_ANNOUNCE   0/7068
FIDONEWS   25122
FIDONEWS_OLD1   0/49742
FIDONEWS_OLD2   0/35949
FIDONEWS_OLD3   0/30874
FIDONEWS_OLD4   0/37224
FIDO_SYSOP   12973
FIDO_UTIL   0/180
FILEFIND   0/209
FILEGATE   0/212
Möte HAM, 16715 texter
 lista första sista föregående nästa
Text 5368, 993 rader
Skriven 2012-06-23 00:31:21 av Amsat List (1:323/120.0)
Ärende: [keps] orb12173.amsa
============================
[keps] orb12173.amsa

Sender: keps-bounces@amsat.org
Return-Path: <keps-bounces@amsat.org>
X-Rcpt: craig.healy@chowda.com
X-UIDL: 1340424794.333

SB KEPS @ AMSAT  $ORB12173.O
Orbital Elements  12173.OSCAR

HR AMSAT ORBITAL ELEMENTS FOR OSCAR SATELLITES
FROM WA5QGD FORT WORTH,TX June 21, 2012
Send SUBSCRIBE KEPS/UNSUBSCRIBE KEPS to majordomo@amsat.org only
BID: ORB12173.O
TO ALL RADIO AMATEURS BT

Satellite: AO-07
Catalog number: 07530
Epoch time:      12172.57696110
Element set:     410
Inclination:      101.4021 deg
RA of node:       169.6566 deg
Eccentricity:    0.0011659
Arg of perigee:   276.8985 deg
Mean anomaly:     083.0761 deg
Mean motion:   12.53589837 rev/day
Decay rate:       -2.7e-07 rev/day^2
Epoch rev:           72047
Checksum:              307

Satellite: FO-29
Catalog number: 24278
Epoch time:      12172.95700475
Element set:    0872
Inclination:      098.5869 deg
RA of node:       273.1177 deg
Eccentricity:    0.0350926
Arg of perigee:   019.6809 deg
Mean anomaly:     341.7489 deg
Mean motion:   13.52984227 rev/day
Decay rate:       -6.0e-07 rev/day^2
Epoch rev:           78246
Checksum:              356

Satellite: SO-33
Catalog number: 25509
Epoch time:      12173.74039106
Element set:     260
Inclination:      031.4364 deg
RA of node:       307.9313 deg
Eccentricity:    0.0352688
Arg of perigee:   243.1946 deg
Mean anomaly:     113.2170 deg
Mean motion:   14.28780853 rev/day
Decay rate:       6.10e-06 rev/day^2
Epoch rev:           71330
Checksum:              279

Satellite: RS-22
Catalog number: 27939
Epoch time:      12173.71303258
Element set:     468
Inclination:      097.8113 deg
RA of node:       014.2966 deg
Eccentricity:    0.0012264
Arg of perigee:   249.7009 deg
Mean anomaly:     110.2873 deg
Mean motion:   14.64047450 rev/day
Decay rate:       4.36e-06 rev/day^2
Epoch rev:           46654
Checksum:              303

Satellite: VO-52
Catalog number: 28650
Epoch time:      12173.50818670
Element set:     133
Inclination:      097.5957 deg
RA of node:       204.2511 deg
Eccentricity:    0.0027166
Arg of perigee:   029.4488 deg
Mean anomaly:     330.8260 deg
Mean motion:   14.82999502 rev/day
Decay rate:      1.083e-05 rev/day^2
Epoch rev:           38561
Checksum:              313

Satellite: HO-68
Catalog number: 36122
Epoch time:      12173.69992155
Element set:     574
Inclination:      100.3609 deg
RA of node:       232.9560 deg
Eccentricity:    0.0007847
Arg of perigee:   097.7725 deg
Mean anomaly:     262.4272 deg
Mean motion:   13.16296277 rev/day
Decay rate:       -4.4e-07 rev/day^2
Epoch rev:           12098
Checksum:              322

/EX
SB KEPS @ AMSAT  $ORB12173.D
Orbital Elements  12173.MICROS

HR AMSAT ORBITAL ELEMENTS FOR THE MICROSATS
FROM WA5QGD FORT WORTH,TX June 21, 2012
Send SUBSCRIBE KEPS/UNSUBSCRIBE KEPS to majordomo@amsat.org only
BID: ORB12173.D
TO ALL RADIO AMATEURS BT

Satellite: UO-11
Catalog number: 14781
Epoch time:      12172.97333242
Element set:    0918
Inclination:      097.9544 deg
RA of node:       232.4611 deg
Eccentricity:    0.0009489
Arg of perigee:   028.3387 deg
Mean anomaly:     331.8339 deg
Mean motion:   14.80470343 rev/day
Decay rate:       4.24e-06 rev/day^2
Epoch rev:           52049
Checksum:              309

Satellite: AO-16
Catalog number: 20439
Epoch time:      12172.86041431
Element set:    0503
Inclination:      098.4311 deg
RA of node:       116.1320 deg
Eccentricity:    0.0011144
Arg of perigee:   143.8113 deg
Mean anomaly:     216.3824 deg
Mean motion:   14.32060140 rev/day
Decay rate:       1.18e-06 rev/day^2
Epoch rev:           17052
Checksum:              227

Satellite: LO-19
Catalog number: 20442
Epoch time:      12172.88285853
Element set:     420
Inclination:      098.3957 deg
RA of node:       119.1463 deg
Eccentricity:    0.0012316
Arg of perigee:   136.0809 deg
Mean anomaly:     224.1358 deg
Mean motion:   14.32278104 rev/day
Decay rate:       1.06e-06 rev/day^2
Epoch rev:           17071
Checksum:              284

Satellite: AO-27
Catalog number: 22825
Epoch time:      12172.74571515
Element set:    0133
Inclination:      098.5728 deg
RA of node:       115.5055 deg
Eccentricity:    0.0007443
Arg of perigee:   270.1681 deg
Mean anomaly:     089.8628 deg
Mean motion:   14.29465565 rev/day
Decay rate:        1.1e-07 rev/day^2
Epoch rev:           97698
Checksum:              327

Satellite: IO-26
Catalog number: 22826
Epoch time:      12173.79565221
Element set:     882
Inclination:      098.5693 deg
RA of node:       116.9076 deg
Eccentricity:    0.0008026
Arg of perigee:   261.8360 deg
Mean anomaly:     098.1916 deg
Mean motion:   14.29740840 rev/day
Decay rate:        8.7e-07 rev/day^2
Epoch rev:           97726
Checksum:              339

Satellite: GO-32
Catalog number: 25397
Epoch time:      12173.68592877
Element set:     805
Inclination:      098.3620 deg
RA of node:       152.1731 deg
Eccentricity:    0.0000327
Arg of perigee:   323.5311 deg
Mean anomaly:     036.5844 deg
Mean motion:   14.23280520 rev/day
Decay rate:       1.68e-06 rev/day^2
Epoch rev:           72466
Checksum:              295

Satellite: NO-44
Catalog number: 26931
Epoch time:      12172.81839519
Element set:    0071
Inclination:      067.0526 deg
RA of node:       110.9820 deg
Eccentricity:    0.0007667
Arg of perigee:   262.4363 deg
Mean anomaly:     097.5862 deg
Mean motion:   14.29806543 rev/day
Decay rate:        8.0e-07 rev/day^2
Epoch rev:           55976
Checksum:              323

